* Astronomy

Members Login
Username 
 
Password 
    Remember Me  
Post Info TOPIC: Asteroid 2012 BG14


L

Posts: 131433
Date:
Asteroid 2012 BG14
Permalink  
 


Orbital elements:
2012 BG14                                                Earth MOID = 0.0311 AU
Epoch 2012 Mar. 14.0 TT = JDT 2456000.5                 MPC
M  62.51491              (2000.0)            P               Q
n   0.56904072     Peri.  275.23299     +0.77799304     -0.59187907
a   1.4422498      Node   121.22865     +0.62825377     +0.73028699
e   0.4894525      Incl.   14.26662     +0.00490227     +0.34111594
P   1.73           H   24.9           G   0.15           U   8

MPEC 2012 - B43



__________________
Page 1 of 1  sorted by
 
Quick Reply

Please log in to post quick replies.



Create your own FREE Forum
Report Abuse
Powered by ActiveBoard